Weather History for KTVR - September, 2012

Change the Weather History Date:

Saturday, September 1, 2012

  Actual Average Record
Temperature  
Mean Temperature 84 °F 79 °F  
Max Temperature 92 °F 90 °F 105 °F (2000)
Min Temperature 76 °F 68 °F 53 °F (1954)
Degree Days  
Heating Degree Days 0 0  
Month to date heating degree days 0 0  
Since 1 July heating degree days 0 0  
Cooling Degree Days 19 14  
Month to date cooling degree days 19 14  
Year to date cooling degree days 2046 1803  
Growing Degree Days 34 (Base 50)    
Moisture  
Dew Point 75 °F    
Average Humidity 77    
Maximum Humidity 94    
Minimum Humidity 60    
Precipitation  
Precipitation 0.02 in 0.13 in 0.89 in (2008)
Month to date precipitation 0.02 0.13  
Year to date precipitation 39.12 36.70  
Sea Level Pressure  
Sea Level Pressure 30.08 in    
Wind  
Wind Speed 7 mph (South)    
Max Wind Speed 17 mph    
Max Gust Speed 23 mph    
Visibility 10 miles    
Events      
T = Trace of Precipitation, MM = Missing Value Source: NWS Daily Summary

Daily Weather History Graph

Daily Weather History Graph

Search for Another Location

Airport or City:

Trip Planner

Search our weather history database for the weather conditions in past years. The results will help you decide how hot, cold, wet, or windy it might be!

Date:

Astronomy

Sep. 01, 2012 Rise Set
Actual Time 6:39 AM CDT 7:27 PM CDT
Civil Twilight 6:14 AM CDT 7:52 PM CDT
Nautical Twilight 5:44 AM CDT 8:22 PM CDT
Astronomical Twilight 5:14 AM CDT 8:52 PM CDT
Moon 7:54 PM CDT (9/1) 7:39 AM CDT (9/1)
Length of Visible Light 13h 38m
Length of Day
12h 48m
Full, 99% of the Moon is Illuminated
Sep 1
Full
Sep 8
Last Quarter
Sep 15
New
Sep 22
First Quarter
Sep 29
Full

Hourly Weather History & Observations

Time (CDT) Temp. Heat Index Dew Point Humidity Pressure Visibility Wind Dir Wind Speed Gust Speed Precip Events Conditions
1:53 AM 78.1 °F - 75.0 °F 90% 30.07 in 10.0 mi South 8.1 mph - N/A   Partly Cloudy
2:18 AM 77.0 °F - 75.2 °F 94% 30.05 in 10.0 mi South 9.2 mph - N/A   Mostly Cloudy
2:53 AM 77.0 °F - 75.9 °F 96% 30.07 in 10.0 mi South 8.1 mph - N/A   Overcast
3:53 AM 78.1 °F - 75.9 °F 93% 30.08 in 10.0 mi South 9.2 mph - N/A   Mostly Cloudy
4:02 AM 78.8 °F - 75.2 °F 89% 30.06 in 10.0 mi South 9.2 mph - N/A   Mostly Cloudy
4:21 AM 77.0 °F - 75.2 °F 94% 30.06 in 9.0 mi South 8.1 mph - N/A   Scattered Clouds
4:53 AM 77.0 °F - 75.0 °F 94% 30.09 in 8.0 mi South 8.1 mph - N/A   Mostly Cloudy
5:34 AM 77.0 °F - 75.2 °F 94% 30.07 in 8.0 mi South 6.9 mph - N/A   Scattered Clouds
5:44 AM 78.8 °F - 75.2 °F 89% 30.08 in 8.0 mi South 8.1 mph - N/A   Mostly Cloudy
5:53 AM 78.1 °F - 75.0 °F 90% 30.09 in 8.0 mi South 6.9 mph - N/A   Mostly Cloudy
6:53 AM 78.1 °F - 75.0 °F 90% 30.11 in 8.0 mi South 6.9 mph - N/A   Overcast
7:53 AM 78.1 °F - 75.9 °F 93% 30.13 in 8.0 mi South 6.9 mph - N/A   Overcast
8:53 AM 80.1 °F 85.4 °F 75.9 °F 87% 30.14 in 10.0 mi Variable 6.9 mph - N/A   Overcast
10:53 AM 84.9 °F 95.3 °F 77.0 °F 77% 30.14 in 10.0 mi Variable 5.8 mph - N/A   Unknown
11:53 AM 87.1 °F 97.3 °F 75.9 °F 69% 30.14 in 10.0 mi SW 8.1 mph - N/A   Overcast
12:53 PM 90.0 °F 101.3 °F 75.9 °F 63% 30.11 in 10.0 mi WSW 6.9 mph - N/A   Partly Cloudy
1:53 PM 89.1 °F 101.4 °F 77.0 °F 67% 30.08 in 10.0 mi SW 5.8 mph - 0.02 in   Scattered Clouds
2:53 PM 90.0 °F 101.3 °F 75.9 °F 63% 30.05 in 10.0 mi Variable 5.8 mph - N/A   Scattered Clouds
3:53 PM 91.0 °F 102.9 °F 75.9 °F 61% 30.04 in 10.0 mi South 9.2 mph 17.3 mph N/A   Partly Cloudy
4:53 PM 90.0 °F 101.3 °F 75.9 °F 63% 30.04 in 10.0 mi South 9.2 mph 18.4 mph N/A   Partly Cloudy
5:53 PM 86.0 °F 93.8 °F 73.9 °F 67% 30.04 in 10.0 mi SSW 9.2 mph - N/A   Clear
6:53 PM 82.9 °F 89.4 °F 73.9 °F 74% 30.04 in 10.0 mi SSW 8.1 mph 19.6 mph N/A   Clear
7:53 PM 80.1 °F 84.5 °F 73.9 °F 81% 30.04 in 10.0 mi South 6.9 mph - N/A   Clear
8:53 PM 78.1 °F - 73.0 °F 84% 30.06 in 10.0 mi South 8.1 mph - N/A   Clear
9:53 PM 77.0 °F - 73.9 °F 90% 30.05 in 10.0 mi South 6.9 mph - N/A   Clear
10:53 PM 77.0 °F - 73.9 °F 90% 30.06 in 10.0 mi South 5.8 mph - N/A   Clear
11:53 PM 75.9 °F - 73.9 °F 94% 30.05 in 10.0 mi South 5.8 mph - N/A   Clear